When you browse on this site, cookies collect data to enhance your experience and personalize the content and advertising you see.
Visit our Privacy Policy to learn more. By continuing to use the site, you agree to this use of cookies and data.
  • In Germany
  • List of Countries
  • For 7 days
  • Water Temperature
  • Satellite Maps
  • Weather Map
  • Weather Widgets
  • user-avatar
    Login

    Hourly Weather Bulyk

    Today, 18 December, Tuesday

    Time Temperature Precipitation Wind Pressure Humidity
    00:00 -15°C° 0 mm 1 mps 648 mmHg 75%
    01:00 -15°C° 0 mm 1 mps 648 mmHg 73%
    02:00 -15°C° 0 mm 1 mps 648 mmHg 73%
    03:00 -15°C° 0 mm 1 mps 648 mmHg 72%
    04:00 -15°C° 0 mm 1 mps 648 mmHg 72%
    05:00 -15°C° 0 mm 1 mps 648 mmHg 72%
    06:00 -15°C° 0 mm 1 mps 648 mmHg 73%
    07:00 -16°C° 0 mm 2 mps 648 mmHg 69%
    08:00 -15°C° 0 mm 2 mps 648 mmHg 69%
    09:00 -12°C° 0 mm 1 mps 648 mmHg 69%
    10:00 -12°C° 0 mm 1 mps 649 mmHg 69%
    11:00 -11°C° 0 mm 1 mps 649 mmHg 69%
    12:00 -10°C° 0 mm 1 mps 649 mmHg 69%
    13:00 -9°C° 0 mm 1 mps 649 mmHg 71%
    14:00 -10°C° 0 mm 1 mps 649 mmHg 74%
    15:00 -11°C° 0 mm 1 mps 649 mmHg 78%
    16:00 -12°C° 0 mm 1 mps 649 mmHg 82%
    17:00 -13°C° 0 mm 1 mps 649 mmHg 83%
    18:00 -13°C° 0 mm 1 mps 649 mmHg 84%
    19:00 -12°C° 0 mm 1 mps 649 mmHg 85%
    20:00 -13°C° 0 mm 1 mps 649 mmHg 86%
    21:00 -13°C° 0 mm 1 mps 649 mmHg 87%
    22:00 -14°C° 0 mm 1 mps 649 mmHg 88%
    23:00 -14°C° 0 mm 1 mps 649 mmHg 88%

    Tomorrow, 19 December, Wednesday

    Time Temperature Precipitation Wind Pressure Humidity
    00:00 -14°C° 0 mm 1 mps 649 mmHg 87%
    01:00 -15°C° 0 mm 1 mps 649 mmHg 87%
    02:00 -15°C° 0 mm 1 mps 649 mmHg 86%
    03:00 -15°C° 0 mm 1 mps 649 mmHg 85%
    04:00 -16°C° 0 mm 1 mps 649 mmHg 85%
    05:00 -16°C° 0 mm 1 mps 649 mmHg 84%
    06:00 -16°C° 0 mm 1 mps 649 mmHg 83%
    07:00 -16°C° 0 mm 1 mps 649 mmHg 82%
    08:00 -15°C° 0 mm 1 mps 649 mmHg 79%
    09:00 -15°C° 0 mm 1 mps 649 mmHg 77%
    10:00 -14°C° 0 mm 1 mps 649 mmHg 74%
    11:00 -13°C° 0 mm 1 mps 649 mmHg 73%
    12:00 -12°C° 0 mm 1 mps 649 mmHg 71%
    13:00 -11°C° 0 mm 1 mps 648 mmHg 70%
    14:00 -12°C° 0 mm 1 mps 648 mmHg 74%
    15:00 -14°C° 0 mm 1 mps 647 mmHg 79%
    16:00 -15°C° 0 mm 1 mps 646 mmHg 83%
    17:00 -16°C° 0 mm 1 mps 646 mmHg 83%
    18:00 -17°C° 0 mm 1 mps 646 mmHg 83%
    19:00 -17°C° 0 mm 1 mps 646 mmHg 83%
    20:00 -17°C° 0 mm 1 mps 646 mmHg 82%
    21:00 -18°C° 0 mm 1 mps 645 mmHg 82%
    22:00 -18°C° 0 mm 1 mps 645 mmHg 81%
    23:00 -18°C° 0 mm 1 mps 645 mmHg 80%

    Day after tomorrow, 20 December, Thursday

    Time Temperature Precipitation Wind Pressure Humidity
    00:00 -18°C° 0 mm 1 mps 645 mmHg 79%
    01:00 -18°C° 0 mm 1 mps 645 mmHg 78%
    02:00 -18°C° 0 mm 1 mps 645 mmHg 77%
    03:00 -18°C° 0 mm 1 mps 645 mmHg 76%
    04:00 -18°C° 0 mm 1 mps 645 mmHg 75%
    05:00 -18°C° 0 mm 1 mps 645 mmHg 74%
    06:00 -18°C° 0 mm 1 mps 645 mmHg 73%
    07:00 -19°C° 0 mm 1 mps 645 mmHg 72%
    08:00 -17°C° 0 mm 1 mps 646 mmHg 70%
    09:00 -16°C° 0 mm 1 mps 646 mmHg 68%
    10:00 -15°C° 0 mm 1 mps 647 mmHg 66%
    11:00 -14°C° 0 mm 1 mps 647 mmHg 65%
    12:00 -13°C° 0 mm 1 mps 647 mmHg 63%
    13:00 -12°C° 0 mm 1 mps 647 mmHg 62%
    14:00 -13°C° 0 mm 1 mps 647 mmHg 67%
    15:00 -15°C° 0 mm 1 mps 646 mmHg 71%
    16:00 -16°C° 0 mm 1 mps 646 mmHg 76%
    17:00 -16°C° 0 mm 1 mps 646 mmHg 76%
    18:00 -17°C° 0 mm 1 mps 646 mmHg 77%
    19:00 -17°C° 0 mm 1 mps 647 mmHg 77%
    20:00 -17°C° 0 mm 1 mps 647 mmHg 78%
    21:00 -17°C° 0 mm 1 mps 647 mmHg 78%
    22:00 -17°C° 0 mm 1 mps 647 mmHg 79%
    23:00 -17°C° 0 mm 1 mps 647 mmHg 80%

    21 December, Friday

    Time Temperature Precipitation Wind Pressure Humidity
    00:00 -17°C° 0 mm 1 mps 647 mmHg 81%
    01:00 -17°C° 0 mm 1 mps 647 mmHg 82%
    02:00 -17°C° 0.1 mm 1 mps 648 mmHg 84%
    03:00 -17°C° 0.1 mm 1 mps 648 mmHg 86%
    04:00 -17°C° 0.1 mm 1 mps 648 mmHg 88%
    05:00 -17°C° 0.2 mm 1 mps 649 mmHg 90%
    06:00 -17°C° 0.2 mm 1 mps 650 mmHg 91%
    07:00 -17°C° 0.2 mm 1 mps 651 mmHg 93%
    08:00 -17°C° 0.2 mm 1 mps 652 mmHg 92%
    09:00 -17°C° 0.2 mm 1 mps 652 mmHg 91%
    10:00 -19°C° 0.2 mm 2 mps 653 mmHg 90%
    11:00 -19°C° 0.2 mm 2 mps 653 mmHg 89%
    12:00 -22°C° 0.2 mm 3 mps 653 mmHg 87%
    13:00 -22°C° 0.2 mm 3 mps 654 mmHg 85%
    14:00 -23°C° 0.1 mm 3 mps 654 mmHg 86%
    15:00 -24°C° 0.1 mm 3 mps 654 mmHg 87%
    16:00 -24°C° 0.1 mm 2 mps 654 mmHg 89%
    17:00 -25°C° 0 mm 2 mps 655 mmHg 89%
    18:00 -23°C° 0 mm 1 mps 655 mmHg 89%
    19:00 -24°C° 0 mm 1 mps 655 mmHg 89%
    20:00 -24°C° 0 mm 1 mps 655 mmHg 88%
    21:00 -25°C° 0 mm 1 mps 655 mmHg 86%
    22:00 -27°C° 0 mm 1 mps 655 mmHg 84%
    23:00 -27°C° 0 mm 1 mps 655 mmHg 80%

    22 December, Saturday

    Time Temperature Precipitation Wind Pressure Humidity
    00:00 -29°C° 0 mm 2 mps 655 mmHg 77%
    01:00 -30°C° 0 mm 2 mps 655 mmHg 73%
    02:00 -30°C° 0 mm 2 mps 655 mmHg 72%
    03:00 -30°C° 0 mm 2 mps 654 mmHg 70%
    04:00 -30°C° 0 mm 2 mps 654 mmHg 68%
    05:00 -30°C° 0 mm 2 mps 654 mmHg 68%
    06:00 -30°C° 0 mm 2 mps 653 mmHg 68%
    07:00 -30°C° 0 mm 2 mps 653 mmHg 67%
    08:00 -28°C° 0 mm 2 mps 653 mmHg 66%
    09:00 -27°C° 0 mm 2 mps 653 mmHg 65%
    10:00 -26°C° 0 mm 2 mps 653 mmHg 64%
    11:00 -24°C° 0 mm 2 mps 653 mmHg 63%
    12:00 -23°C° 0 mm 2 mps 653 mmHg 62%
    13:00 -20°C° 0 mm 2 mps 652 mmHg 61%
    14:00 -21°C° 0 mm 2 mps 652 mmHg 65%
    15:00 -21°C° 0 mm 2 mps 651 mmHg 68%
    16:00 -23°C° 0 mm 2 mps 651 mmHg 72%
    17:00 -23°C° 0 mm 2 mps 650 mmHg 71%
    18:00 -24°C° 0 mm 2 mps 650 mmHg 71%
    19:00 -24°C° 0 mm 2 mps 650 mmHg 70%
    20:00 -24°C° 0 mm 2 mps 649 mmHg 69%
    21:00 -24°C° 0 mm 2 mps 649 mmHg 68%
    22:00 -24°C° 0 mm 2 mps 649 mmHg 67%
    23:00 -24°C° 0 mm 2 mps 648 mmHg 67%

    23 December, Sunday

    Time Temperature Precipitation Wind Pressure Humidity
    00:00 -24°C° 0 mm 2 mps 648 mmHg 66%
    01:00 -24°C° 0 mm 2 mps 648 mmHg 66%
    02:00 -24°C° 0 mm 2 mps 648 mmHg 66%
    03:00 -24°C° 0 mm 2 mps 647 mmHg 66%
    04:00 -24°C° 0 mm 2 mps 647 mmHg 66%
    05:00 -24°C° 0 mm 2 mps 647 mmHg 66%
    06:00 -24°C° 0 mm 2 mps 647 mmHg 65%
    07:00 -24°C° 0 mm 2 mps 647 mmHg 65%
    08:00 -23°C° 0 mm 2 mps 647 mmHg 64%
    09:00 -21°C° 0 mm 2 mps 647 mmHg 62%
    10:00 -20°C° 0 mm 2 mps 648 mmHg 61%
    11:00 -19°C° 0 mm 2 mps 648 mmHg 60%
    12:00 -17°C° 0 mm 2 mps 648 mmHg 59%
    13:00 -16°C° 0 mm 2 mps 648 mmHg 59%
    14:00 -17°C° 0 mm 2 mps 648 mmHg 64%
    15:00 -18°C° 0 mm 2 mps 648 mmHg 70%
    16:00 -20°C° 0 mm 2 mps 648 mmHg 75%
    17:00 -21°C° 0 mm 2 mps 648 mmHg 78%
    18:00 -21°C° 0 mm 2 mps 649 mmHg 81%
    19:00 -23°C° 0 mm 2 mps 649 mmHg 84%
    20:00 -25°C° 0 mm 3 mps 650 mmHg 84%
    21:00 -25°C° 0 mm 3 mps 650 mmHg 85%
    22:00 -26°C° 0 mm 3 mps 651 mmHg 85%
    23:00 -27°C° 0 mm 3 mps 651 mmHg 85%
    Show more